Regional Weather Roundup
Issued by NWS

Home | Current Version | Previous Version | Graphics & Text | Print | Product List | Glossary On
Versions: 1 2 3 4 5 6 7 8 9 10 11 12 13 14 15 16 17 18 19 20 21 22 23 24 25 26 27 28 29 30 31 32 33 34 35 36 37 38 39 40 41 42 43 44 45 46 47 48 49 50
000
ASUS45 KBOI 261510
RWRID

IDAHO REGIONAL WEATHER ROUNDUP
NATIONAL WEATHER SERVICE BOISE ID
900 AM MDT SUN MAR 26 2017

NOTE: "FAIR" INDICATES FEW OR NO CLOUDS BELOW 12000 FEET
WITH NO SIGNIFICANT WEATHER AND/OR OBSTRUCTIONS TO VISIBILITY

IDZ012-014-261600-
SOUTHWEST IDAHO


CITY           SKY/WX    TMP DP  RH WIND       PRES   REMARKS
BOISE          SUNNY     44  27  51 SE14      29.94S
CALDWELL       SUNNY     41  33  73 E6        29.96S
MOUNTAIN HOME  MOSUNNY   38  38 100 SE12      29.97R WCI  31
$$

IDZ016-017-261600-
SOUTHCENTRAL IDAHO


CITY           SKY/WX    TMP DP  RH WIND       PRES   REMARKS
BURLEY         SUNNY     38  29  70 SE6       29.99F WCI  33
JEROME         MOSUNNY   39  31  72 E8        29.99S WCI  33
TWIN FALLS     MOSUNNY   41  31  67 S6        29.99S
$$

IDZ019>023-261600-
SOUTHEAST IDAHO


CITY           SKY/WX    TMP DP  RH WIND       PRES   REMARKS
IDAHO FALLS    SUNNY     34  29  82 S6        30.03R WCI  29
POCATELLO      SUNNY     35  27  72 SW5       30.04R WCI  31
REXBURG        MOSUNNY   33  27  78 W3        30.02R
$$

IDZ006-010-011-018-031-032-261600-
CENTRAL IDAHO MOUNTAINS


CITY           SKY/WX    TMP DP  RH WIND       PRES   REMARKS
MCCALL         PTSUNNY   28  24  85 CALM      29.92F
HAILEY         SUNNY     30  19  64 NW12      30.02R WCI  21
STANLEY          N/A     17  14  88 CALM      30.00F
SALMON         SUNNY     30  23  74 CALM      30.00F
CHALLIS        MOSUNNY   30  23  75 NE3       30.00F
$$

IDZ002-004-006-007-026-261600-
NORTHERN IDAHO


CITY           SKY/WX    TMP DP  RH WIND       PRES   REMARKS
LEWISTON       PTSUNNY   40  35  83 E5        29.93F
LOWELL           N/A     40  35  83 CALM      30.01F
COEUR D`ALENE  MOSUNNY   33  31  92 NE5       29.94F WCI  29
MULLAN PASS    PTSUNNY   24  23  96 SE6       29.88F WCI  17
$$



USA.gov is the U.S. government's official web portal to all federal, state and local government web resources and services.